Location: Newark
(40.9833°N, 0.0333°W)
Time: 23:44:47
(UTC+00:00)

Altair - Pass Details

Date: 29 October 2020
Orbit: 1502 x 1682 km, 47.2° (Epoch: 03 December)

Event Time Altitude Azimuth Distance (km) Brightness Sun altitude
Rises 13:47:42 0° 284° (WNW) 4,849 10.4 28.2°
Reaches altitude 10° 13:54:25 10° 252° (WSW) 3,898 10.6 27.5°
Maximum altitude 13:56:37 11° 239° (WSW) 3,835 10.9 27.3°
Drops below altitude 10° 13:58:49 10° 226° (SW) 3,915 11.4 27.0°
Sets 14:05:43 0° 194° (SSW) 4,916 11.2 26.2°
